Regional Weather Roundup
Issued by NWS

Home | Current Version | Previous Version | Text Only | Print | Product List | Glossary Off
Versions: 1 2 3 4 5 6 7 8 9 10 11 12 13 14 15 16 17 18 19 20 21 22 23 24 25 26 27 28 29 30 31 32 33 34 35 36 37 38 39 40 41 42 43 44 45 46 47 48 49 50

000
ASUS43 KBIS 260120
RWRND

NORTH DAKOTA REGIONAL WEATHER ROUNDUP
NATIONAL WEATHER SERVICE BISMARCK ND
800 PM CDT SAT APR 25 2015

NOTE: "FAIR" INDICATES FEW OR NO CLOUDS BELOW 12,000 FEET WITH NO
SIGNIFICANT WEATHER AND/OR OBSTRUCTIONS TO VISIBILITY.


NDZ001>003-009>011-017-260200-
NORTHWEST NORTH DAKOTA

CITY           SKY/WX    TMP DP  RH WIND       PRES   REMARKS
WILLISTON      CLOUDY    54  44  69 S13       29.78R
MINOT          CLOUDY    53  41  63 SE13      29.84R
MINOT AFB      CLOUDY    54  46  74 SE14      29.83R
$$

NDZ018>021-031>035-040>046-260200-
SOUTHWEST NORTH DAKOTA

CITY           SKY/WX    TMP DP  RH WIND       PRES   REMARKS
BISMARCK       CLOUDY    49  43  80 SE9       29.87R
DICKINSON      CLOUDY    47  44  90 S10       29.80R FOG
GARRISON         N/A     50  42  74 SE14      29.84R
HETTINGER ARPT CLOUDY    49  44  83 SE7       29.83R
$$

NDZ004>008-012>016-024-026-027-054-260200-
NORTHEAST NORTH DAKOTA

CITY           SKY/WX    TMP DP  RH WIND       PRES   REMARKS
GRAND FORKS    MOCLDY    62  38  40 S6        29.91R
GRND FRKS AFB  CLEAR     58  38  46 S7        29.91R
DEVILS LAKE    PTCLDY    50  39  66 SE8       29.91R
$$

NDZ022-023-025-028>030-036>039-047>053-260200-
SOUTHEAST NORTH DAKOTA

CITY           SKY/WX    TMP DP  RH WIND       PRES   REMARKS
FARGO          CLEAR     60  35  39 SE9       29.90R
JAMESTOWN      CLOUDY    51  41  68 SE8       29.90R
$$



USA.gov is the U.S. government's official web portal to all federal, state and local government web resources and services.